ATLAS 5 CENTAUR DEB, 46606

Orbit data source: Space-Track

ATLAS 5 CENTAUR DEB, 46606 is space debris in HEO originally from a launch on Wed, 17 Oct 2018 UTC launched from the Air Force Eastern Test Range (AFETR). Debris objects in space refer to the collection of defunct objects orbiting the Earth. Examples of debris include non-operational satellites, rocket bodies, and fragments generated from explosions, collisions, or faulty payload assembly.

Loading next visibility...
Identifier
46606, 2018-079CE
Orbit
HEO
Country
Flag of USUS
Related business
Flag of USUnited Launch Alliance/Lockheed Martin (US)
Manufacturer
ULA Decatur
Mission
Spacecraft
Bus & Motor
Unknown
Mass
Unknown
Launch date (UTC)
2018-10-17 (8 years ago)
Launch vehicle
Unknown
Launch site
Air Force Eastern Test Range (AFETR)
Object type
Payload
Rocket body
Debris
Shape & HBR
Unknown shape, 1.1 m
Radar Cross Section
Medium (>0.1 m² and <1 m²)

Expand to show TLE details & history
Last TLE update: 3 days ago

TLE from 3 days ago
0 ATLAS 5 CENTAUR DEB
1 46606U 18079CE  26170.05285743 -.00000104  00000-0  00000-0 0  9993
2 46606  13.5162  39.5033 4653045 301.4817  21.1512  1.79381867 42734
Epoch: 2026-06-19T01:16Z
TLE epoch observation values (Epoch: 2026-06-19T01:16:06.881Z)
Latitude
0.00007°
Longitude
113.16762°
Altitude
11,688.949 km
Speed
5.495 km/s
True Right ascension
02h 37m 56s
True Declination
0° 00' 00"
Sunlit
Object was in daylight at epoch
Visualization orbit readout
Latitude
Unknown
Longitude
Unknown
Altitude
Unknown
Speed
Unknown
Apparent Right ascension
Unknown
Apparent Declination
Unknown
Sunlit
N/A
Visualization observer readout
Local Sidereal Time
23:19:46
Azimuth
Unknown
Elevation
Unknown
Doppler factor
Unknown
Orbital elements
Apogee altitude
35,550.289 km
Perigee altitude
8,921.714 km
Semi-major axis
28,614.139 km
Eccentricity
0.4653
Inclination
13.5162°
RAAN
39.5033°
Arg. of periapsis
301.4817°
True anomaly
58.40139°
Mean anomaly
21.1512°
Eccentric anomaly
37.31086°
Mean motion
0.44841 °/min
Orbital period
802.84 mins
BSTAR
0
Loading maneuver chart data...
Computing Atmospheric mass density...

Documentation

Showing up to 5 results
|